Tracking 20621 objects as of 30-Mar-2020
HD Live streaming from Space Station
objects crossing your sky now

ARIANE 2 DEB

Track ARIANE 2 DEB now!


NORAD ID: 40786
Int'l Code: 1989-006CF
Perigee: 624.2 km
Apogee: 35,633.0 km
Inclination: 8.6 °
Period: 636.1 minutes
Semi major axis: 24499 km
RCS: Unknown
Launch date: January 27, 1989
Source: France (FR)
Launch site: FRENCH GUIANA (FRGUI)

Note: This is SATELLITE DEBRIS
aabbcc
Your satellite tracking list
Your tracking list is empty




NASA's NSSDC Master Catalog

Two Line Element Set (TLE):
1 40786U 89006CF  20019.31220245 -.00000138 +00000-0 +66675-3 0  9995
2 40786 008.5501 001.9239 7144771 266.1716 294.4955 02.26393877132090
Source of the keplerian elements: AFSPC